,,Stat6,,Stat2,,Stat8,,Stat9,,Stat10,,Wind1,,Wind1,
time,status,PA1M_AVG,status,PR1M_SUM,status,RH1M_AVG,status,SR1M_AVG,status,TA1M_AVG,status,W1dAve1m,status,W1sAve1m,
2008-12-15, 00:00:00,VALID,918.59,VALID,0,VALID,100,VALID,0.0169808,VALID,18.8231,VALID,36,VALID,0,
2008-12-15, 00:01:00,VALID,918.579,VALID,0,VALID,100,VALID,-0.0169808,VALID,18.8065,VALID,36,VALID,0,
2008-12-15, 00:02:00,VALID,918.571,VALID,0,VALID,100,VALID,0.0169808,VALID,18.7962,VALID,36,VALID,0,
2008-12-15, 00:03:00,VALID,918.572,VALID,0,VALID,100,VALID,0,VALID,18.8194,VALID,36,VALID,0,
2008-12-15, 00:04:00,VALID,918.543,VALID,0,VALID,100,VALID,0.0169808,VALID,18.8556,VALID,36,VALID,0,
2008-12-15, 00:05:00,VALID,918.544,VALID,0,VALID,100,VALID,0,VALID,18.8616,VALID,33,VALID,0,
2008-12-15, 00:06:00,VALID,918.538,VALID,0,VALID,100,VALID,0.0169808,VALID,18.8783,VALID,32,VALID,0,
2008-12-15, 00:07:00,VALID,918.534,VALID,0,VALID,100,VALID,-0.0169808,VALID,18.8785,VALID,32,VALID,0,
2008-12-15, 00:08:00,VALID,918.535,VALID,0,VALID,100,VALID,-0.0509425,VALID,18.869,VALID,32,VALID,0,
2008-12-15, 00:09:00,VALID,918.518,VALID,0,VALID,100,VALID,-0.0679233,VALID,18.873,VALID,31,VALID,0,
2008-12-15, 00:10:00,VALID,918.505,VALID,0,VALID,100,VALID,-0.0849042,VALID,18.8598,VALID,26,VALID,0,
2008-12-15, 00:11:00,VALID,918.499,VALID,0,VALID,100,VALID,-0.0849042,VALID,18.8436,VALID,24,VALID,0,
2008-12-15, 00:12:00,VALID,918.492,VALID,0,VALID,100,VALID,-0.101885,VALID,18.8273,VALID,18,VALID,0,
2008-12-15, 00:13:00,VALID,918.482,VALID,0,VALID,100,VALID,-0.0849042,VALID,18.8144,VALID,16,VALID,0,
2008-12-15, 00:14:00,VALID,918.48,VALID,0,VALID,100,VALID,-0.118866,VALID,18.8144,VALID,16,VALID,0,
2008-12-15, 00:15:00,VALID,918.482,VALID,0,VALID,100,VALID,-0.101885,VALID,18.8373,VALID,16,VALID,0,
2008-12-15, 00:16:00,VALID,918.463,VALID,0,VALID,100,VALID,-0.101885,VALID,18.8308,VALID,16,VALID,0,
2008-12-15, 00:17:00,VALID,918.459,VALID,0.2,VALID,100,VALID,-0.0679233,VALID,18.7944,VALID,16,VALID,0,
2008-12-15, 00:18:00,VALID,918.458,VALID,0,VALID,100,VALID,-0.0849042,VALID,18.7879,VALID,16,VALID,0,
2008-12-15, 00:19:00,VALID,918.448,VALID,0,VALID,100,VALID,-0.0849042,VALID,18.8044,VALID,16,VALID,0,
2008-12-15, 00:20:00,VALID,918.427,VALID,0,VALID,100,VALID,-0.0679233,VALID,18.8306,VALID,21,VALID,0,
2008-12-15, 00:21:00,VALID,918.426,VALID,0,VALID,100,VALID,-0.0849042,VALID,18.8463,VALID,21,VALID,0,
2008-12-15, 00:22:00,VALID,918.418,VALID,0,VALID,100,VALID,-0.0849042,VALID,18.8468,VALID,21,VALID,0,
2008-12-15, 00:23:00,VALID,918.4,VALID,0,VALID,100,VALID,-0.101885,VALID,18.844,VALID,21,VALID,0,
2008-12-15, 00:24:00,VALID,918.398,VALID,0,VALID,100,VALID,-0.101885,VALID,18.847,VALID,21,VALID,0,
2008-12-15, 00:25:00,VALID,918.38,VALID,0,VALID,100,VALID,-0.101885,VALID,18.8376,VALID,24,VALID,0,
2008-12-15, 00:26:00,VALID,918.366,VALID,0,VALID,100,VALID,-0.135847,VALID,18.8248,VALID,30,VALID,0,
2008-12-15, 00:27:00,VALID,918.359,VALID,0,VALID,100,VALID,-0.118866,VALID,18.8178,VALID,15,VALID,0,
2008-12-15, 00:28:00,VALID,918.356,VALID,0,VALID,100,VALID,-0.118866,VALID,18.8276,VALID,12,VALID,0,
2008-12-15, 00:29:00,VALID,918.34,VALID,0.2,VALID,100,VALID,-0.118866,VALID,18.8378,VALID,12,VALID,0,
2008-12-15, 00:30:00,VALID,918.331,VALID,0,VALID,100,VALID,-0.118866,VALID,18.8343,VALID,12,VALID,0,
2008-12-15, 00:31:00,VALID,918.315,VALID,0,VALID,100,VALID,-0.118866,VALID,18.841,VALID,12,VALID,0,
2008-12-15, 00:32:00,VALID,918.299,VALID,0,VALID,100,VALID,-0.101885,VALID,18.8503,VALID,12,VALID,0,
2008-12-15, 00:33:00,VALID,918.289,VALID,0,VALID,100,VALID,-0.118866,VALID,18.8728,VALID,12,VALID,0,
2008-12-15, 00:34:00,VALID,918.271,VALID,0,VALID,100,VALID,-0.101885,VALID,18.9022,VALID,12,VALID,0,
2008-12-15, 00:35:00,VALID,918.269,VALID,0,VALID,100,VALID,-0.101885,VALID,18.9089,VALID,12,VALID,0,
2008-12-15, 00:36:00,VALID,918.25,VALID,0,VALID,100,VALID,-0.118866,VALID,18.9089,VALID,12,VALID,0,
2008-12-15, 00:37:00,VALID,918.238,VALID,0,VALID,100,VALID,-0.0849042,VALID,18.8978,VALID,12,VALID,0,
2008-12-15, 00:38:00,VALID,918.223,VALID,0,VALID,100,VALID,-0.0509425,VALID,18.9142,VALID,12,VALID,0,
2008-12-15, 00:39:00,VALID,918.207,VALID,0,VALID,100,VALID,0.0169808,VALID,18.914,VALID,14,VALID,0,
2008-12-15, 00:40:00,VALID,918.183,VALID,0,VALID,100,VALID,0,VALID,18.9272,VALID,26,VALID,0,
2008-12-15, 00:41:00,VALID,918.162,VALID,0,VALID,100,VALID,-0.0169808,VALID,18.9202,VALID,26,VALID,0,
2008-12-15, 00:42:00,VALID,918.147,VALID,0,VALID,100,VALID,-0.0169808,VALID,18.9267,VALID,27,VALID,0.0213914,
2008-12-15, 00:43:00,VALID,918.136,VALID,0,VALID,100,VALID,0,VALID,18.9304,VALID,25,VALID,0,
2008-12-15, 00:44:00,VALID,918.115,VALID,0,VALID,100,VALID,-0.0169808,VALID,18.911,VALID,23,VALID,0,
2008-12-15, 00:45:00,VALID,918.118,VALID,0,VALID,100,VALID,-0.0169808,VALID,18.9012,VALID,22,VALID,0,
2008-12-15, 00:46:00,VALID,918.103,VALID,0,VALID,100,VALID,-0.0339617,VALID,18.872,VALID,22,VALID,0,
2008-12-15, 00:47:00,VALID,918.087,VALID,0,VALID,100,VALID,0,VALID,18.8236,VALID,22,VALID,0,
2008-12-15, 00:48:00,VALID,918.072,VALID,0,VALID,100,VALID,-0.0339617,VALID,18.8034,VALID,13,VALID,0,
2008-12-15, 00:49:00,VALID,918.065,VALID,0,VALID,100,VALID,0,VALID,18.7944,VALID,34,VALID,0,
2008-12-15, 00:50:00,VALID,918.047,VALID,0,VALID,100,VALID,-0.0509425,VALID,18.8037,VALID,32,VALID,0,
2008-12-15, 00:51:00,VALID,918.036,VALID,0,VALID,100,VALID,-0.0169808,VALID,18.8364,VALID,32,VALID,0,
2008-12-15, 00:52:00,VALID,918.014,VALID,0,VALID,100,VALID,0,VALID,18.8591,VALID,32,VALID,0,
2008-12-15, 00:53:00,VALID,918,VALID,0,VALID,100,VALID,-0.0339617,VALID,18.8486,VALID,32,VALID,0,
2008-12-15, 00:54:00,VALID,918.001,VALID,0,VALID,100,VALID,0,VALID,18.8688,VALID,32,VALID,0,
2008-12-15, 00:55:00,VALID,917.974,VALID,0,VALID,100,VALID,-0.0339617,VALID,18.8785,VALID,32,VALID,0,
2008-12-15, 00:56:00,VALID,917.969,VALID,0,VALID,100,VALID,-0.0169808,VALID,18.8785,VALID,32,VALID,0,
2008-12-15, 00:57:00,VALID,917.957,VALID,0,VALID,100,VALID,-0.0509425,VALID,18.8688,VALID,32,VALID,0,
2008-12-15, 00:58:00,VALID,917.945,VALID,0,VALID,100,VALID,0,VALID,18.8588,VALID,32,VALID,0,
2008-12-15, 00:59:00,VALID,917.931,VALID,0,VALID,100,VALID,-0.0169808,VALID,18.8528,VALID,32,VALID,0,
2008-12-15, 01:00:00,VALID,917.918,VALID,0.2,VALID,100,VALID,-0.0169808,VALID,18.8234,VALID,32,VALID,0,
2008-12-15, 01:01:00,VALID,917.884,VALID,0,VALID,100,VALID,-0.0339617,VALID,18.8361,VALID,32,VALID,0,
2008-12-15, 01:02:00,VALID,917.855,VALID,0,VALID,100,VALID,-0.0169808,VALID,18.8493,VALID,31,VALID,0,
2008-12-15, 01:03:00,VALID,917.832,VALID,0,VALID,100,VALID,-0.0169808,VALID,18.8329,VALID,11,VALID,0,
2008-12-15, 01:04:00,VALID,917.817,VALID,0,VALID,100,VALID,-0.0339617,VALID,18.8039,VALID,358,VALID,0,
2008-12-15, 01:05:00,VALID,917.805,VALID,0.2,VALID,100,VALID,0,VALID,18.7974,VALID,358,VALID,0,
2008-12-15, 01:06:00,VALID,917.799,VALID,0,VALID,100,VALID,0,VALID,18.794,VALID,358,VALID,0,
2008-12-15, 01:07:00,VALID,917.781,VALID,0,VALID,100,VALID,-0.0339617,VALID,18.781,VALID,358,VALID,0,
2008-12-15, 01:08:00,VALID,917.779,VALID,0,VALID,100,VALID,-0.0679233,VALID,18.778,VALID,339,VALID,0,
2008-12-15, 01:09:00,VALID,917.751,VALID,0,VALID,100,VALID,-0.0169808,VALID,18.7682,VALID,4,VALID,0,
2008-12-15, 01:10:00,VALID,917.74,VALID,0,VALID,100,VALID,-0.0169808,VALID,18.7777,VALID,20,VALID,0,
2008-12-15, 01:11:00,VALID,917.725,VALID,0.2,VALID,100,VALID,-0.0509425,VALID,18.7747,VALID,19,VALID,0,
2008-12-15, 01:12:00,VALID,917.722,VALID,0,VALID,100,VALID,-0.0339617,VALID,18.7682,VALID,17,VALID,0,
2008-12-15, 01:13:00,VALID,917.717,VALID,0,VALID,100,VALID,-0.0509425,VALID,18.7747,VALID,17,VALID,0,
2008-12-15, 01:14:00,VALID,917.713,VALID,0,VALID,100,VALID,-0.0679233,VALID,18.7682,VALID,4,VALID,0.0646307,
2008-12-15, 01:15:00,VALID,917.693,VALID,0,VALID,100,VALID,-0.0339617,VALID,18.7587,VALID,23,VALID,0,
2008-12-15, 01:16:00,VALID,917.684,VALID,0,VALID,100,VALID,-0.0509425,VALID,18.7298,VALID,22,VALID,0,
2008-12-15, 01:17:00,VALID,917.665,VALID,0,VALID,100,VALID,-0.0339617,VALID,18.7066,VALID,17,VALID,0,
2008-12-15, 01:18:00,VALID,917.644,VALID,0,VALID,100,VALID,-0.0169808,VALID,18.7034,VALID,16,VALID,0,
2008-12-15, 01:19:00,VALID,917.647,VALID,0,VALID,100,VALID,-0.0679233,VALID,18.7133,VALID,10,VALID,0,
2008-12-15, 01:20:00,VALID,917.622,VALID,0,VALID,100,VALID,-0.0169808,VALID,18.7094,VALID,7,VALID,0.0831473,
2008-12-15, 01:21:00,VALID,917.61,VALID,0,VALID,100,VALID,0,VALID,18.7096,VALID,337,VALID,0,
2008-12-15, 01:22:00,VALID,917.575,VALID,0,VALID,100,VALID,0,VALID,18.7224,VALID,14,VALID,0.0450994,
2008-12-15, 01:23:00,VALID,917.559,VALID,0,VALID,100,VALID,-0.0169808,VALID,18.7455,VALID,357,VALID,0.0142045,
2008-12-15, 01:24:00,VALID,917.537,VALID,0,VALID,100,VALID,-0.0169808,VALID,18.7194,VALID,1,VALID,0,
2008-12-15, 01:25:00,VALID,917.53,VALID,0,VALID,100,VALID,0,VALID,18.7226,VALID,355,VALID,0,
2008-12-15, 01:26:00,VALID,917.508,VALID,0,VALID,100,VALID,-0.0339617,VALID,18.7126,VALID,358,VALID,0,
2008-12-15, 01:27:00,VALID,917.488,VALID,0,VALID,100,VALID,0,VALID,18.7031,VALID,352,VALID,0,
2008-12-15, 01:28:00,VALID,917.479,VALID,0,VALID,100,VALID,-0.0169808,VALID,18.7031,VALID,7,VALID,0,
2008-12-15, 01:29:00,VALID,917.457,VALID,0,VALID,100,VALID,-0.0339617,VALID,18.6962,VALID,355,VALID,0.061756,
2008-12-15, 01:30:00,VALID,917.463,VALID,0,VALID,100,VALID,0,VALID,18.6994,VALID,353,VALID,0,
2008-12-15, 01:31:00,VALID,917.456,VALID,0,VALID,100,VALID,0,VALID,18.6994,VALID,359,VALID,0,
2008-12-15, 01:32:00,VALID,917.447,VALID,0,VALID,100,VALID,-0.0169808,VALID,18.6929,VALID,345,VALID,0,
2008-12-15, 01:33:00,VALID,917.437,VALID,0,VALID,100,VALID,0,VALID,18.6862,VALID,26,VALID,0,
2008-12-15, 01:34:00,VALID,917.426,VALID,0,VALID,100,VALID,0,VALID,18.6864,VALID,9,VALID,0,
2008-12-15, 01:35:00,VALID,917.418,VALID,0,VALID,100,VALID,-0.0169808,VALID,18.6934,VALID,27,VALID,0,
2008-12-15, 01:36:00,VALID,917.424,VALID,0,VALID,100,VALID,-0.0509425,VALID,18.6837,VALID,55,VALID,0,
2008-12-15, 01:37:00,VALID,917.415,VALID,0,VALID,100,VALID,-0.0169808,VALID,18.6902,VALID,56,VALID,0,
2008-12-15, 01:38:00,VALID,917.413,VALID,0,VALID,100,VALID,-0.0169808,VALID,18.6902,VALID,347,VALID,0,
2008-12-15, 01:39:00,VALID,917.406,VALID,0,VALID,100,VALID,-0.0169808,VALID,18.6834,VALID,352,VALID,0,
2008-12-15, 01:40:00,VALID,917.402,VALID,0,VALID,100,VALID,-0.0169808,VALID,18.664,VALID,346,VALID,0,
2008-12-15, 01:41:00,VALID,917.405,VALID,0,VALID,100,VALID,-0.0169808,VALID,18.6313,VALID,343,VALID,0,
2008-12-15, 01:42:00,VALID,917.405,VALID,0,VALID,100,VALID,-0.0339617,VALID,18.6343,VALID,343,VALID,0,
2008-12-15, 01:43:00,VALID,917.398,VALID,0,VALID,100,VALID,-0.0169808,VALID,18.6707,VALID,343,VALID,0,
2008-12-15, 01:44:00,VALID,917.385,VALID,0,VALID,100,VALID,0,VALID,18.667,VALID,343,VALID,0,
2008-12-15, 01:45:00,VALID,917.373,VALID,0,VALID,100,VALID,0.0169808,VALID,18.6867,VALID,343,VALID,0,
2008-12-15, 01:46:00,VALID,917.361,VALID,0,VALID,100,VALID,-0.0169808,VALID,18.6672,VALID,1,VALID,0,
2008-12-15, 01:47:00,VALID,917.353,VALID,0,VALID,100,VALID,0,VALID,18.6637,VALID,3,VALID,0,
2008-12-15, 01:48:00,VALID,917.364,VALID,0,VALID,100,VALID,0,VALID,18.663,VALID,3,VALID,0,
2008-12-15, 01:49:00,VALID,917.369,VALID,0,VALID,100,VALID,0,VALID,18.6765,VALID,3,VALID,0,
2008-12-15, 01:50:00,VALID,917.364,VALID,0,VALID,100,VALID,-0.0169808,VALID,18.6698,VALID,3,VALID,0,
2008-12-15, 01:51:00,VALID,917.362,VALID,0,VALID,100,VALID,-0.0169808,VALID,18.68,VALID,3,VALID,0,
2008-12-15, 01:52:00,VALID,917.351,VALID,0,VALID,100,VALID,-0.0339617,VALID,18.6894,VALID,3,VALID,0,
2008-12-15, 01:53:00,VALID,917.349,VALID,0,VALID,100,VALID,-0.0339617,VALID,18.6997,VALID,3,VALID,0,
2008-12-15, 01:54:00,VALID,917.323,VALID,0,VALID,100,VALID,0,VALID,18.6997,VALID,3,VALID,0,
2008-12-15, 01:55:00,VALID,917.327,VALID,0,VALID,100,VALID,-0.0169808,VALID,18.6732,VALID,3,VALID,0,
2008-12-15, 01:56:00,VALID,917.303,VALID,0,VALID,100,VALID,-0.0169808,VALID,18.6802,VALID,3,VALID,0,
2008-12-15, 01:57:00,VALID,917.296,VALID,0,VALID,100,VALID,-0.0169808,VALID,18.6672,VALID,3,VALID,0,
2008-12-15, 01:58:00,VALID,917.284,VALID,0,VALID,100,VALID,-0.0509425,VALID,18.6642,VALID,3,VALID,0,
2008-12-15, 01:59:00,VALID,917.26,VALID,0,VALID,100,VALID,-0.0679233,VALID,18.661,VALID,3,VALID,0,
2008-12-15, 02:00:00,VALID,917.252,VALID,0,VALID,100,VALID,-0.0849042,VALID,18.6644,VALID,3,VALID,0,
2008-12-15, 02:01:00,VALID,917.239,VALID,0,VALID,100,VALID,-0.0169808,VALID,18.6774,VALID,3,VALID,0,
2008-12-15, 02:02:00,VALID,917.242,VALID,0,VALID,100,VALID,-0.0339617,VALID,18.667,VALID,3,VALID,0,
2008-12-15, 02:03:00,VALID,917.237,VALID,0,VALID,100,VALID,-0.0339617,VALID,18.6712,VALID,360,VALID,0,
2008-12-15, 02:04:00,VALID,917.221,VALID,0,VALID,100,VALID,-0.0339617,VALID,18.6642,VALID,358,VALID,0,
2008-12-15, 02:05:00,VALID,917.209,VALID,0,VALID,100,VALID,-0.0169808,VALID,18.6675,VALID,358,VALID,0,
2008-12-15, 02:06:00,VALID,917.21,VALID,0,VALID,100,VALID,0,VALID,18.661,VALID,358,VALID,0,
2008-12-15, 02:07:00,VALID,917.183,VALID,0,VALID,100,VALID,-0.0169808,VALID,18.667,VALID,358,VALID,0,
2008-12-15, 02:08:00,VALID,917.171,VALID,0,VALID,100,VALID,-0.0169808,VALID,18.6637,VALID,358,VALID,0,
2008-12-15, 02:09:00,VALID,917.162,VALID,0,VALID,100,VALID,-0.0509425,VALID,18.6737,VALID,358,VALID,0,
2008-12-15, 02:10:00,VALID,917.149,VALID,0,VALID,100,VALID,-0.0169808,VALID,18.6774,VALID,358,VALID,0,
2008-12-15, 02:11:00,VALID,917.143,VALID,0,VALID,100,VALID,-0.0339617,VALID,18.67,VALID,358,VALID,0,
2008-12-15, 02:12:00,VALID,917.133,VALID,0,VALID,100,VALID,-0.0169808,VALID,18.6769,VALID,358,VALID,0,
2008-12-15, 02:13:00,VALID,917.132,VALID,0,VALID,100,VALID,0,VALID,18.7034,VALID,358,VALID,0,
2008-12-15, 02:14:00,VALID,917.128,VALID,0,VALID,100,VALID,-0.0339617,VALID,18.7096,VALID,358,VALID,0,
2008-12-15, 02:15:00,VALID,917.114,VALID,0,VALID,100,VALID,0,VALID,18.7094,VALID,358,VALID,0,
2008-12-15, 02:16:00,VALID,917.1,VALID,0,VALID,100,VALID,0,VALID,18.7353,VALID,358,VALID,0,
2008-12-15, 02:17:00,VALID,917.095,VALID,0,VALID,100,VALID,0.0169808,VALID,18.7346,VALID,358,VALID,0,
2008-12-15, 02:18:00,VALID,917.086,VALID,0,VALID,100,VALID,0,VALID,18.7381,VALID,358,VALID,0,
2008-12-15, 02:19:00,VALID,917.078,VALID,0,VALID,100,VALID,0,VALID,18.7543,VALID,358,VALID,0,
2008-12-15, 02:20:00,VALID,917.065,VALID,0,VALID,100,VALID,-0.0339617,VALID,18.7541,VALID,358,VALID,0,
2008-12-15, 02:21:00,VALID,917.058,VALID,0,VALID,100,VALID,0,VALID,18.7541,VALID,358,VALID,0,
2008-12-15, 02:22:00,VALID,917.032,VALID,0,VALID,100,VALID,-0.0169808,VALID,18.761,VALID,358,VALID,0,
2008-12-15, 02:23:00,VALID,917.029,VALID,0,VALID,100,VALID,-0.0509425,VALID,18.7643,VALID,358,VALID,0,
2008-12-15, 02:24:00,VALID,917.01,VALID,0,VALID,100,VALID,-0.0169808,VALID,18.7511,VALID,358,VALID,0,
2008-12-15, 02:25:00,VALID,916.994,VALID,0.2,VALID,100,VALID,0,VALID,18.7349,VALID,358,VALID,0,
2008-12-15, 02:26:00,VALID,916.991,VALID,0,VALID,100,VALID,0,VALID,18.7281,VALID,358,VALID,0,
2008-12-15, 02:27:00,VALID,916.992,VALID,0,VALID,100,VALID,0,VALID,18.7386,VALID,358,VALID,0,
2008-12-15, 02:28:00,VALID,916.984,VALID,0,VALID,100,VALID,-0.0849042,VALID,18.7353,VALID,358,VALID,0,
2008-12-15, 02:29:00,VALID,916.987,VALID,0,VALID,100,VALID,-0.0169808,VALID,18.7186,VALID,358,VALID,0,
2008-12-15, 02:30:00,VALID,916.99,VALID,0,VALID,100,VALID,-0.0339617,VALID,18.7191,VALID,358,VALID,0,
2008-12-15, 02:31:00,VALID,916.981,VALID,0,VALID,100,VALID,0,VALID,18.7288,VALID,358,VALID,0,
2008-12-15, 02:32:00,VALID,916.978,VALID,0,VALID,100,VALID,-0.101885,VALID,18.7388,VALID,358,VALID,0,
2008-12-15, 02:33:00,VALID,916.972,VALID,0,VALID,100,VALID,-0.0169808,VALID,18.7291,VALID,358,VALID,0,
2008-12-15, 02:34:00,VALID,916.972,VALID,0,VALID,100,VALID,-0.0679233,VALID,18.7191,VALID,358,VALID,0,
2008-12-15, 02:35:00,VALID,916.968,VALID,0,VALID,100,VALID,-0.0339617,VALID,18.7089,VALID,358,VALID,0,
2008-12-15, 02:36:00,VALID,916.965,VALID,0,VALID,100,VALID,-0.0339617,VALID,18.7029,VALID,358,VALID,0,
2008-12-15, 02:37:00,VALID,916.961,VALID,0,VALID,100,VALID,0,VALID,18.7027,VALID,358,VALID,0,
2008-12-15, 02:38:00,VALID,916.942,VALID,0,VALID,100,VALID,0,VALID,18.7261,VALID,358,VALID,0,
2008-12-15, 02:39:00,VALID,916.946,VALID,0,VALID,100,VALID,-0.0169808,VALID,18.7224,VALID,358,VALID,0,
2008-12-15, 02:40:00,VALID,916.945,VALID,0,VALID,100,VALID,0,VALID,18.7293,VALID,358,VALID,0,
2008-12-15, 02:41:00,VALID,916.943,VALID,0,VALID,100,VALID,-0.0339617,VALID,18.7321,VALID,358,VALID,0,
2008-12-15, 02:42:00,VALID,916.922,VALID,0,VALID,100,VALID,0,VALID,18.7154,VALID,358,VALID,0,
2008-12-15, 02:43:00,VALID,916.927,VALID,0,VALID,100,VALID,0,VALID,18.7154,VALID,358,VALID,0,
2008-12-15, 02:44:00,VALID,916.928,VALID,0,VALID,100,VALID,-0.0339617,VALID,18.7353,VALID,358,VALID,0,
2008-12-15, 02:45:00,VALID,916.928,VALID,0,VALID,100,VALID,0,VALID,18.7349,VALID,358,VALID,0,
2008-12-15, 02:46:00,VALID,916.914,VALID,0,VALID,100,VALID,-0.0509425,VALID,18.758,VALID,358,VALID,0,
2008-12-15, 02:47:00,VALID,916.904,VALID,0,VALID,100,VALID,-0.0509425,VALID,18.7615,VALID,358,VALID,0,
2008-12-15, 02:48:00,VALID,916.901,VALID,0,VALID,100,VALID,-0.0339617,VALID,18.7383,VALID,358,VALID,0,
2008-12-15, 02:49:00,VALID,916.886,VALID,0,VALID,100,VALID,-0.0509425,VALID,18.7256,VALID,358,VALID,0,
2008-12-15, 02:50:00,VALID,916.886,VALID,0,VALID,100,VALID,-0.0339617,VALID,18.7191,VALID,358,VALID,0,
2008-12-15, 02:51:00,VALID,916.865,VALID,0,VALID,100,VALID,-0.0509425,VALID,18.7094,VALID,358,VALID,0,
2008-12-15, 02:52:00,VALID,916.869,VALID,0,VALID,100,VALID,-0.0169808,VALID,18.6894,VALID,358,VALID,0,
2008-12-15, 02:53:00,VALID,916.865,VALID,0,VALID,100,VALID,-0.0339617,VALID,18.7066,VALID,358,VALID,0,
2008-12-15, 02:54:00,VALID,916.854,VALID,0,VALID,100,VALID,0,VALID,18.6927,VALID,358,VALID,0,
2008-12-15, 02:55:00,VALID,916.847,VALID,0,VALID,100,VALID,0,VALID,18.6959,VALID,358,VALID,0,
2008-12-15, 02:56:00,VALID,916.833,VALID,0,VALID,100,VALID,-0.0509425,VALID,18.7064,VALID,358,VALID,0,
2008-12-15, 02:57:00,VALID,916.831,VALID,0,VALID,100,VALID,-0.0339617,VALID,18.6862,VALID,358,VALID,0,
2008-12-15, 02:58:00,VALID,916.819,VALID,0,VALID,100,VALID,0,VALID,18.6862,VALID,358,VALID,0,
2008-12-15, 02:59:00,VALID,916.805,VALID,0,VALID,100,VALID,0,VALID,18.6857,VALID,358,VALID,0,
2008-12-15, 03:00:00,VALID,916.802,VALID,0,VALID,100,VALID,0,VALID,18.6728,VALID,358,VALID,0,
2008-12-15, 03:01:00,VALID,916.793,VALID,0,VALID,100,VALID,0.0169808,VALID,18.6533,VALID,358,VALID,0,
2008-12-15, 03:02:00,VALID,916.779,VALID,0,VALID,100,VALID,0.0169808,VALID,18.6538,VALID,358,VALID,0,
2008-12-15, 03:03:00,VALID,916.77,VALID,0,VALID,100,VALID,-0.0169808,VALID,18.6508,VALID,358,VALID,0,
2008-12-15, 03:04:00,VALID,916.768,VALID,0,VALID,100,VALID,0,VALID,18.648,VALID,358,VALID,0,
2008-12-15, 03:05:00,VALID,916.747,VALID,0,VALID,100,VALID,-0.0679233,VALID,18.6605,VALID,358,VALID,0,
2008-12-15, 03:06:00,VALID,916.746,VALID,0,VALID,100,VALID,0,VALID,18.6807,VALID,358,VALID,0,
2008-12-15, 03:07:00,VALID,916.753,VALID,0,VALID,100,VALID,-0.0339617,VALID,18.6925,VALID,358,VALID,0,
2008-12-15, 03:08:00,VALID,916.738,VALID,0,VALID,100,VALID,0,VALID,18.6892,VALID,358,VALID,0,
2008-12-15, 03:09:00,VALID,916.741,VALID,0,VALID,100,VALID,-0.0169808,VALID,18.6897,VALID,358,VALID,0,
2008-12-15, 03:10:00,VALID,916.73,VALID,0,VALID,100,VALID,0,VALID,18.6765,VALID,358,VALID,0,
2008-12-15, 03:11:00,VALID,916.72,VALID,0,VALID,100,VALID,0,VALID,18.6605,VALID,358,VALID,0,
2008-12-15, 03:12:00,VALID,916.713,VALID,0,VALID,100,VALID,-0.0169808,VALID,18.6445,VALID,358,VALID,0,
2008-12-15, 03:13:00,VALID,916.71,VALID,0,VALID,100,VALID,-0.0339617,VALID,18.6508,VALID,358,VALID,0,
2008-12-15, 03:14:00,VALID,916.704,VALID,0,VALID,100,VALID,-0.0679233,VALID,18.6512,VALID,358,VALID,0,
2008-12-15, 03:15:00,VALID,916.694,VALID,0,VALID,100,VALID,-0.0169808,VALID,18.654,VALID,358,VALID,0,
2008-12-15, 03:16:00,VALID,916.674,VALID,0,VALID,100,VALID,-0.0169808,VALID,18.6577,VALID,358,VALID,0,
2008-12-15, 03:17:00,VALID,916.678,VALID,0,VALID,100,VALID,-0.0339617,VALID,18.661,VALID,358,VALID,0,
2008-12-15, 03:18:00,VALID,916.655,VALID,0,VALID,100,VALID,-0.0509425,VALID,18.6705,VALID,358,VALID,0,
2008-12-15, 03:19:00,VALID,916.641,VALID,0,VALID,100,VALID,-0.0169808,VALID,18.667,VALID,358,VALID,0,
2008-12-15, 03:20:00,VALID,916.629,VALID,0,VALID,100,VALID,-0.0169808,VALID,18.6605,VALID,358,VALID,0,
2008-12-15, 03:21:00,VALID,916.627,VALID,0,VALID,100,VALID,-0.0509425,VALID,18.6482,VALID,358,VALID,0,
2008-12-15, 03:22:00,VALID,916.603,VALID,0,VALID,100,VALID,-0.0169808,VALID,18.6475,VALID,358,VALID,0,
2008-12-15, 03:23:00,VALID,916.592,VALID,0,VALID,100,VALID,0,VALID,18.6473,VALID,358,VALID,0,
2008-12-15, 03:24:00,VALID,916.587,VALID,0,VALID,100,VALID,-0.0169808,VALID,18.6378,VALID,358,VALID,0,
2008-12-15, 03:25:00,VALID,916.567,VALID,0,VALID,100,VALID,-0.0169808,VALID,18.6413,VALID,358,VALID,0,
2008-12-15, 03:26:00,VALID,916.555,VALID,0,VALID,100,VALID,0,VALID,18.6343,VALID,358,VALID,0,
2008-12-15, 03:27:00,VALID,916.55,VALID,0,VALID,100,VALID,-0.0509425,VALID,18.6345,VALID,358,VALID,0,
2008-12-15, 03:28:00,VALID,916.539,VALID,0,VALID,100,VALID,-0.0339617,VALID,18.6213,VALID,358,VALID,0,
2008-12-15, 03:29:00,VALID,916.526,VALID,0,VALID,100,VALID,0,VALID,18.6091,VALID,358,VALID,0,
2008-12-15, 03:30:00,VALID,916.516,VALID,0,VALID,100,VALID,-0.0169808,VALID,18.5993,VALID,358,VALID,0,
2008-12-15, 03:31:00,VALID,916.494,VALID,0,VALID,100,VALID,-0.0169808,VALID,18.5894,VALID,358,VALID,0,
2008-12-15, 03:32:00,VALID,916.477,VALID,0,VALID,100,VALID,0,VALID,18.5894,VALID,16,VALID,0,
2008-12-15, 03:33:00,VALID,916.457,VALID,0,VALID,100,VALID,-0.0339617,VALID,18.5929,VALID,40,VALID,0,
2008-12-15, 03:34:00,VALID,916.452,VALID,0,VALID,100,VALID,-0.0509425,VALID,18.5896,VALID,16,VALID,0,
2008-12-15, 03:35:00,VALID,916.441,VALID,0,VALID,100,VALID,-0.0339617,VALID,18.5834,VALID,17,VALID,0,
2008-12-15, 03:36:00,VALID,916.431,VALID,0,VALID,100,VALID,-0.0849042,VALID,18.5639,VALID,17,VALID,0,
2008-12-15, 03:37:00,VALID,916.427,VALID,0,VALID,100,VALID,-0.0509425,VALID,18.5507,VALID,14,VALID,0,
2008-12-15, 03:38:00,VALID,916.425,VALID,0,VALID,100,VALID,-0.0169808,VALID,18.5477,VALID,13,VALID,0.00104167,
2008-12-15, 03:39:00,VALID,916.414,VALID,0,VALID,100,VALID,0,VALID,18.5444,VALID,12,VALID,0.244792,
2008-12-15, 03:40:00,VALID,916.418,VALID,0,VALID,100,VALID,0,VALID,18.5152,VALID,12,VALID,0.313867,
2008-12-15, 03:41:00,VALID,916.421,VALID,0,VALID,100,VALID,-0.0339617,VALID,18.5118,VALID,23,VALID,0.00121528,
2008-12-15, 03:42:00,VALID,916.401,VALID,0,VALID,100,VALID,0,VALID,18.5016,VALID,18,VALID,0,
2008-12-15, 03:43:00,VALID,916.397,VALID,0,VALID,100,VALID,-0.0169808,VALID,18.5152,VALID,12,VALID,0,
2008-12-15, 03:44:00,VALID,916.39,VALID,0,VALID,100,VALID,-0.0339617,VALID,18.5347,VALID,11,VALID,0,
2008-12-15, 03:45:00,VALID,916.371,VALID,0,VALID,100,VALID,-0.0509425,VALID,18.515,VALID,11,VALID,0,
2008-12-15, 03:46:00,VALID,916.38,VALID,0,VALID,100,VALID,-0.0169808,VALID,18.512,VALID,11,VALID,0,
2008-12-15, 03:47:00,VALID,916.361,VALID,0,VALID,100,VALID,-0.0509425,VALID,18.5118,VALID,11,VALID,0,
2008-12-15, 03:48:00,VALID,916.344,VALID,0,VALID,100,VALID,-0.0509425,VALID,18.5247,VALID,11,VALID,0,
2008-12-15, 03:49:00,VALID,916.338,VALID,0,VALID,100,VALID,0,VALID,18.5183,VALID,11,VALID,0,
2008-12-15, 03:50:00,VALID,916.317,VALID,0,VALID,100,VALID,-0.0339617,VALID,18.5083,VALID,11,VALID,0,
2008-12-15, 03:51:00,VALID,916.318,VALID,0,VALID,100,VALID,0,VALID,18.525,VALID,11,VALID,0,
2008-12-15, 03:52:00,VALID,916.308,VALID,0,VALID,100,VALID,0,VALID,18.5208,VALID,11,VALID,0,
2008-12-15, 03:53:00,VALID,916.322,VALID,0,VALID,100,VALID,0,VALID,18.5472,VALID,11,VALID,0,
2008-12-15, 03:54:00,VALID,916.316,VALID,0,VALID,100,VALID,-0.0339617,VALID,18.5537,VALID,11,VALID,0,